Temp
56 56 56 56 56 56 56 56 56 56 57 57 58 58 58 58 57 60 74 76 70 72 78 79 80 75 79 79 75 80 80 83 81 74 75 76 76 80 78 80 77 75 72 73 73 69 66 85 86 75 78 85 86 88
55 55 56 56 56 56 56 56 56 56 56 57 57 57 58 57 57 57 72 79 76 68 76 80 81 83 82 82 78 81 79 77 81 76 81 80 75 79 75 70 83 73 78 73 74 74 82 87 84 87 88 84 86 86
55 55 55 55 55 55 55 55 56 56 56 56 57 57 57 57 56 57 67 73 73 70 77 79 79 84 88 86 89 75 84 82 81 81 79 78 69 78 71 74 74 81 81 75 75 81 79 84 86 84 84 84 86 88
55 55 55 55 55 55 55 55 55 56 56 56 56 56 56 56 56 55 66 74 71 71 68 80 88 83 87 89 86 86 84 86 85 84 79 77 74 82 74 77 75 80 79 74 73 78 76 79 78 80 82 84 85 79
55 55 55 55 55 55 55 55 55 55 56 56 56 56 56 55 55 59 69 74 74 67 66 74 86 88 89 87 83 84 84 82 80 77 77 75 81 78 79 79 76 82 74 72 69 76 74 74 78 79 79 79 81 69
55 55 55 55 55 55 55 55 55 55 55 55 55 55 55 54 55 67 70 75 77 75 68 70 85 81 84 83 82 81 82 81 80 79 78 82 82 77 70 70 78 80 80 81 75 80 79 81 83 84 79 81 73 76
54 54 54 55 55 55 55 55 55 55 55 55 54 54 54 54 61 68 66 67 62 75 68 70 75 82 82 82 83 82 83 81 79 78 77 77 80 77 73 68 77 79 80 79 81 78 75 80 79 82 81 82 77 73
54 54 54 54 54 55 55 55 54 54 54 54 54 53 53 53 55 67 71 59 63 71 73 66 73 76 83 77 76 86 78 80 78 76 78 76 78 77 67 73 76 77 77 78 79 80 80 82 82 82 82 82 79 77
54 54 54 54 54 54 54 54 54 54 54 54 54 55 63 63 69 70 58 59 71 68 65 71 68 68 83 78 79 79 79 71 81 73 74 78 72 66 69 70 70 73 72 73 77 79 80 78 79 80 81 80 79 74
54 54 54 54 54 54 54 55 54 54 54 54 62 69 69 71 53 59 65 64 63 68 68 65 76 70 77 76 73 73 76 70 67 74 80 70 70 74 78 77 75 74 75 77 72 70 73 73 75 76 77 79 80 80
54 54 54 54 54 54 54 54 54 54 59 73 70 70 72 58 69 68 64 63 62 60 68 69 71 66 78 68 65 75 67 72 63 68 69 60 64 69 73 73 76 77 78 77 77 77 77 76 74 74 76 77 75 77
54 53 54 54 54 54 54 54 53 64 66 58 57 63 69 68 66 60 59 65 63 61 69 69 70 74 75 76 69 69 65 68 59 75 67 61 63 71 73 73 75 77 77 76 77 75 75 74 74 74 75 74 73 72
53 53 54 53 53 54 54 54 54 54 57 66 61 61 66 65 48 54 53 60 60 68 70 70 66 72 71 72 66 66 60 60 74 65 60 63 67 72 71 73 73 75 76 76 75 74 73 73 74 72 71 72 74 72
53 53 53 53 53 53 54 54 54 58 63 64 62 43 59 58 61 62 63 65 67 73 70 71 67 67 69 64 63 59 63 68 59 55 55 61 63 69 71 72 71 72 73 74 72 70 70 71 70 68 69 71 71 72
53 53 53 54 55 54 54 54 54 62 65 57 51 45 61 68 72 69 69 69 71 74 72 70 70 70 63 63 66 62 58 56 58 55 60 59 67 68 69 69 70 70 71 72 72 71 68 68 66 67 68 69 69 69
53 52 57 55 54 54 53 58 64 57 57 50 52 57 66 65 65 68 69 68 73 73 75 71 63 62 61 63 60 59 60 57 60 65 68 69 68 68 69 70 69 70 69 70 68 67 66 65 66 64 64 58 60 67
52 54 54 54 54 53 53 60 63 57 51 49 54 66 66 63 61 65 68 68 74 70 61 62 56 58 66 62 60 67 60 62 71 69 75 70 68 68 69 69 69 69 69 68 66 66 66 66 66 64 58 57 57 61
51 57 54 53 53 57 61 61 60 50 47 58 58 61 65 67 64 67 69 72 68 67 64 60 66 60 59 58 63 69 71 75 75 73 74 71 71 70 70 68 69 69 68 67 67 66 66 64 61 55 56 57 58 60
55 55 53 52 52 50 54 57 56 47 52 63 63 63 64 66 68 69 70 71 72 72 68 66 61 59 60 66 68 70 75 75 72 72 74 70 71 70 70 70 69 67 65 64 64 62 61 59 57 56 57 57 58 67
52 52 52 52 52 49 48 48 53 46 47 56 59 59 61 61 64 65 69 71 69 66 61 60 63 66 69 73 76 76 76 76 74 73 73 74 74 70 70 70 72 68 70 67 65 55 65 60 61 61 61 63 69 68
50 52 52 51 49 49 46 46 47 50 51 53 59 57 58 62 61 65 66 71 65 62 61 66 67 73 73 75 80 79 77 77 75 75 73 75 75 77 73 73 73 71 74 72 71 69 59 63 59 67 72 72 66 72
51 53 50 50 47 47 44 50 48 53 51 55 60 61 58 57 58 61 68 63 64 66 68 70 71 71 69 71 76 75 77 76 75 73 60 64 73 73 72 75 76 71 69 65 66 65 64 73 73 73 74 76 71 78
51 50 49 48 43 41 42 53 45 49 44 49 58 55 56 58 62 69 60 65 68 72 73 73 73 74 73 71 71 76 77 75 76 77 76 78 78 79 78 78 77 76 74 76 78 76 73 60 73 74 77 79 78 77
50 47 44 44 42 40 48 45 48 48 52 51 53 52 56 59 64 57 57 61 70 73 73 71 74 74 75 73 75 77 77 78 78 79 79 78 77 77 79 80 81 82 80 80 81 78 79 76 68 79 78 78 77 75
40 41 42 36 46 42 43 44 45 46 45 51 52 55 60 63 54 53 55 57 68 70 73 73 74 75 75 76 77 76 79 80 78 77 80 81 79 78 79 80 81 81 83 80 78 77 77 78 78 79 79 79 77 77
36 43 39 43 44 42 43 43 44 46 50 51 55 63 62 58 53 52 55 59 60 67 74 73 74 75 77 77 73 73 78 82 81 79 79 83 82 80 77 73 64 71 82 83 81 78 79 78 78 78 78 75 59 76
37 42 46 50 45 46 44 47 50 50 51 52 57 54 52 48 51 55 66 71 65 73 77 77 77 72 72 76 80 83 84 83 81 82 84 85 86 84 82 78 78 80 84 83 83 82 80 80 80 80 80 81 80 81
44 46 42 45 43 46 43 46 48 52 57 63 61 52 49 50 49 59 71 75 76 77 78 79 79 82 80 80 84 84 84 84 84 85 86 86 87 86 86 86 85 58 83 86 86 85 83 82 82 82 81 81 80 82
42 48 46 43 44 44 45 46 55 62 66 65 59 59 61 63 65 69 73 75 78 78 77 77 78 82 83 85 85 86 85 84 80 75 74 76 74 75 87 87 84 85 86 85 58 67 75 78 81 83 83 83 84 84
49 53 45 45 44 44 50 58 59 64 67 66 68 68 68 70 74 78 77 77 76 76 79 76 80 78 77 80 81 82 85 84 84 82 78 78 79 80 69 66 84 86 87 87 86 82 48 68 72 80 80 82 81 81
51 51 47 47 47 55 60 63 65 66 66 64 67 64 65 69 74 77 77 77 78 78 78 78 81 81 79 80 81 81 81 86 87 87 87 83 84 85 73 72 85 87 86 87 86 85 83 79 81 80 80 80 81 77
50 47 46 45 52 61 63 60 63 64 66 66 67 70 70 68 65 73 78 78 77 77 71 74 78 79 81 86 83 86 60 88 86 84 86 87 88 88 89 90 88 88 85 85 86 86 84 82 83 82 82 81 81 81
52 54 54 53 56 59 65 64 62 62 64 64 66 71 70 69 65 76 82 82 81 81 81 81 82 84 83 84 83 85 70 89 75 55 55 51 46 55 75 86 88 85 85 82 82 85 84 83 83 82 82 82 82 82
MSLP
1026.56 1026.22 1025.89 1025.56 1025.20 1024.81 1024.42 1024.00 1023.57 1023.16 1022.72 1022.27 1021.80 1021.33 1020.87 1020.43 1020.00 1019.21 1016.30 1016.16 1015.50 1012.88 1010.63 1010.10 1009.59 1009.04 1008.14 1007.59 1006.61 1006.22 1005.71 1004.62 1004.13 1003.60 1002.81 1001.93 1001.14 1000.41 999.88 999.75 999.85 999.79 999.89 999.71 999.74 999.61 999.63 1000.26 1000.33 1000.39 1001.18 1001.03 1000.97 999.97
1026.33 1026.02 1025.67 1025.32 1024.97 1024.58 1024.21 1023.80 1023.36 1022.94 1022.54 1022.12 1021.71 1021.28 1020.87 1020.51 1020.19 1019.80 1016.47 1015.72 1016.12 1014.87 1011.30 1011.00 1010.39 1009.93 1009.64 1009.16 1008.56 1007.45 1006.60 1006.21 1005.45 1004.63 1003.45 1002.86 1002.30 1001.53 1001.27 1000.74 1000.93 1000.77 1000.90 1001.05 1001.34 1000.80 1001.64 1002.00 1001.57 1001.79 1001.79 1001.43 1000.88 1000.54
1026.13 1025.80 1025.45 1025.10 1024.72 1024.32 1023.94 1023.57 1023.13 1022.68 1022.24 1021.85 1021.45 1021.06 1020.71 1020.41 1020.18 1020.01 1017.90 1016.34 1015.34 1013.53 1010.64 1009.65 1008.74 1009.03 1009.24 1009.48 1009.33 1008.56 1006.64 1007.05 1006.74 1007.09 1005.58 1004.52 1003.91 1003.41 1002.34 1001.75 1002.02 1001.72 1002.56 1002.52 1002.50 1002.28 1002.76 1002.87 1002.86 1003.41 1003.74 1003.04 1002.16 1001.58
1025.93 1025.59 1025.25 1024.84 1024.42 1024.02 1023.61 1023.25 1022.88 1022.45 1021.99 1021.53 1021.13 1020.74 1020.39 1020.11 1019.90 1019.80 1017.85 1016.19 1015.85 1013.98 1011.14 1008.11 1008.52 1008.51 1008.95 1008.69 1008.94 1008.80 1008.37 1007.94 1007.46 1006.88 1005.91 1004.94 1004.26 1004.13 1003.85 1003.45 1003.33 1002.76 1003.11 1003.46 1003.67 1003.65 1004.23 1004.21 1005.29 1005.22 1004.71 1003.95 1003.10 1003.06
1025.78 1025.36 1025.03 1024.62 1024.18 1023.75 1023.31 1022.86 1022.49 1022.09 1021.66 1021.22 1020.78 1020.39 1020.05 1019.76 1019.44 1018.91 1017.32 1016.11 1015.83 1015.31 1012.03 1009.23 1008.11 1007.88 1008.22 1008.32 1008.75 1008.78 1008.50 1008.16 1007.44 1006.60 1005.76 1005.07 1004.77 1005.00 1004.84 1004.47 1003.74 1003.74 1004.34 1004.35 1004.48 1005.30 1005.64 1005.53 1005.63 1005.58 1004.89 1004.44 1003.94 1005.00
1025.53 1025.08 1024.72 1024.33 1023.90 1023.44 1022.98 1022.51 1022.07 1021.63 1021.18 1020.74 1020.31 1019.91 1019.61 1019.41 1019.19 1017.76 1015.29 1015.35 1015.35 1015.27 1013.27 1009.47 1007.69 1008.00 1008.04 1008.32 1008.22 1008.31 1008.30 1008.06 1007.65 1006.60 1005.91 1005.33 1005.65 1006.60 1005.64 1004.59 1004.37 1004.76 1005.51 1006.02 1006.07 1006.17 1006.32 1005.86 1005.19 1004.92 1005.00 1004.22 1004.36 1004.40
1025.32 1024.91 1024.50 1024.07 1023.61 1023.12 1022.62 1022.12 1021.63 1021.13 1020.60 1020.10 1019.66 1019.20 1018.92 1018.84 1018.40 1016.95 1016.48 1016.25 1016.25 1015.39 1013.35 1009.99 1007.44 1007.53 1008.06 1007.94 1007.62 1007.63 1007.94 1007.69 1007.46 1006.73 1006.23 1006.06 1005.89 1006.68 1006.06 1005.47 1005.28 1005.85 1006.19 1006.71 1006.91 1006.94 1006.45 1005.79 1005.34 1005.36 1004.99 1004.50 1004.60 1004.98
1025.00 1024.61 1024.23 1023.78 1023.34 1022.85 1022.31 1021.75 1021.18 1020.57 1019.98 1019.39 1018.93 1018.55 1018.09 1017.88 1018.21 1016.63 1016.42 1016.81 1016.58 1014.87 1013.01 1010.45 1007.64 1007.42 1007.81 1006.97 1006.76 1007.23 1007.09 1007.13 1007.17 1006.90 1006.45 1006.06 1006.14 1006.16 1006.07 1006.12 1006.56 1006.96 1007.39 1007.16 1006.71 1007.01 1006.60 1005.94 1005.50 1005.08 1004.83 1004.50 1004.98 1005.68
1024.69 1024.30 1023.91 1023.49 1023.09 1022.58 1022.04 1021.43 1020.71 1019.93 1019.19 1018.67 1018.29 1018.03 1017.48 1017.28 1015.98 1015.90 1016.73 1016.72 1016.10 1015.27 1012.43 1009.99 1007.82 1006.60 1007.66 1007.27 1007.38 1007.48 1007.33 1006.63 1006.10 1006.39 1006.10 1006.05 1005.99 1006.00 1006.61 1007.10 1007.64 1007.93 1008.05 1007.72 1007.59 1007.19 1006.48 1005.91 1005.68 1005.53 1004.96 1004.34 1004.38 1005.52
1024.34 1023.95 1023.60 1023.18 1022.82 1022.35 1021.74 1021.14 1020.37 1019.32 1018.36 1018.02 1017.89 1016.89 1014.93 1015.56 1016.97 1016.86 1016.57 1015.49 1014.98 1013.68 1012.94 1010.45 1008.58 1007.80 1007.97 1007.26 1007.13 1007.41 1007.20 1006.67 1005.94 1005.62 1006.11 1006.51 1005.95 1006.75 1006.83 1007.42 1007.96 1008.32 1008.27 1008.00 1007.59 1007.42 1007.10 1006.72 1006.28 1005.98 1005.40 1005.03 1004.53 1004.22
1024.03 1023.67 1023.28 1022.88 1022.47 1022.07 1021.60 1021.04 1020.26 1019.12 1017.13 1016.77 1016.44 1015.56 1015.84 1016.59 1016.13 1014.98 1013.66 1012.95 1012.46 1011.59 1010.58 1009.73 1008.69 1008.13 1008.49 1007.89 1007.68 1007.71 1007.12 1006.78 1006.32 1006.03 1006.40 1006.79 1006.74 1007.35 1007.91 1008.15 1008.40 1008.33 1008.12 1008.04 1007.94 1007.73 1007.58 1007.27 1006.99 1006.52 1005.81 1005.50 1005.59 1005.30
1023.53 1023.27 1022.96 1022.65 1022.23 1021.80 1021.41 1021.00 1020.47 1018.91 1018.61 1019.42 1019.23 1017.79 1016.28 1015.03 1014.12 1013.24 1011.99 1010.91 1010.39 1009.23 1008.88 1008.51 1008.44 1008.56 1008.44 1009.00 1008.43 1008.32 1007.65 1007.43 1006.70 1006.95 1006.84 1006.37 1007.90 1008.08 1008.39 1008.48 1008.47 1008.38 1008.19 1008.25 1008.13 1007.87 1007.93 1007.81 1007.68 1007.10 1006.26 1005.96 1006.28 1006.66
1023.08 1022.88 1022.59 1022.33 1021.96 1021.48 1021.01 1020.75 1020.49 1020.07 1019.09 1018.13 1018.17 1016.14 1014.38 1013.28 1012.68 1011.63 1010.16 1009.23 1008.76 1008.49 1008.59 1008.78 1008.69 1008.67 1009.19 1009.18 1008.76 1008.36 1007.87 1007.20 1007.25 1006.85 1006.66 1007.56 1008.41 1008.55 1008.79 1008.79 1008.69 1008.73 1008.37 1008.24 1008.16 1008.61 1008.56 1008.28 1007.99 1007.79 1007.49 1007.17 1007.27 1007.45
1022.63 1022.36 1022.07 1021.76 1021.44 1021.18 1020.88 1020.58 1020.27 1019.40 1018.47 1016.38 1015.21 1014.83 1012.93 1011.37 1010.47 1009.65 1009.14 1008.37 1008.52 1008.24 1008.49 1008.41 1008.38 1008.59 1008.58 1008.78 1008.64 1007.94 1007.90 1007.46 1006.81 1006.80 1007.55 1008.76 1009.19 1009.13 1009.18 1009.08 1009.06 1008.74 1008.69 1008.35 1008.57 1009.20 1008.99 1008.74 1008.69 1008.74 1008.51 1008.34 1008.20 1008.22
1022.09 1021.83 1021.48 1020.98 1020.69 1020.73 1020.63 1020.37 1020.08 1019.16 1017.73 1016.75 1016.19 1013.80 1011.01 1009.90 1009.50 1009.65 1009.38 1008.94 1008.66 1008.44 1008.36 1008.53 1008.62 1008.72 1008.45 1008.29 1007.78 1007.75 1007.62 1006.89 1006.61 1007.50 1008.30 1008.82 1009.13 1009.26 1009.36 1009.35 1009.24 1009.06 1008.84 1008.65 1008.70 1008.94 1009.36 1009.42 1009.43 1009.27 1009.23 1009.10 1009.07 1009.04
1021.68 1021.26 1020.45 1020.58 1020.73 1020.56 1020.31 1019.55 1019.04 1019.10 1018.16 1017.27 1015.70 1012.89 1010.70 1010.16 1009.38 1009.11 1008.85 1008.46 1008.34 1008.50 1008.46 1008.55 1008.36 1008.22 1007.87 1007.48 1007.14 1006.90 1006.33 1006.35 1006.99 1007.61 1007.91 1008.21 1008.65 1009.19 1009.35 1009.39 1009.36 1009.35 1009.32 1009.22 1009.54 1009.75 1009.83 1009.91 1009.87 1009.96 1010.22 1010.28 1009.99 1009.46
1021.58 1020.83 1020.67 1020.57 1020.48 1020.10 1019.87 1019.42 1018.10 1017.69 1017.25 1016.10 1013.81 1011.86 1011.08 1010.66 1010.15 1009.52 1008.80 1008.71 1008.63 1008.45 1008.54 1008.51 1008.35 1007.66 1007.50 1006.91 1006.26 1005.99 1006.19 1007.16 1007.20 1007.32 1007.14 1008.17 1008.80 1009.12 1009.37 1009.41 1009.38 1009.33 1009.28 1009.35 1009.66 1009.96 1010.06 1010.08 1010.12 1010.36 1010.58 1010.46 1010.44 1010.18
1020.90 1020.24 1020.46 1020.46 1020.43 1019.53 1018.72 1018.62 1017.50 1017.40 1016.06 1014.18 1012.73 1011.20 1010.64 1010.35 1010.14 1009.72 1009.45 1009.06 1009.28 1008.75 1008.51 1008.19 1008.01 1007.48 1006.84 1006.17 1005.65 1005.69 1006.06 1006.49 1006.57 1006.97 1007.40 1008.28 1008.80 1009.12 1009.34 1009.44 1009.43 1009.28 1009.34 1009.56 1009.63 1010.00 1010.29 1010.48 1010.58 1010.79 1010.84 1011.04 1011.01 1010.42
1020.16 1020.21 1020.31 1020.41 1020.53 1020.21 1018.44 1017.86 1017.65 1016.50 1014.86 1012.94 1012.04 1011.38 1010.86 1010.26 1010.11 1009.99 1009.54 1009.20 1008.99 1008.89 1008.85 1008.41 1007.75 1007.02 1006.64 1006.34 1005.86 1005.85 1005.93 1006.30 1006.71 1007.19 1007.59 1008.44 1008.96 1009.15 1009.31 1009.23 1009.30 1009.52 1009.80 1009.95 1010.13 1010.44 1010.72 1010.94 1010.92 1011.07 1011.14 1011.03 1010.60 1010.05
1020.08 1020.05 1020.09 1020.21 1020.51 1019.91 1018.78 1018.15 1017.93 1016.68 1014.77 1012.94 1012.25 1011.28 1010.70 1010.27 1009.98 1009.55 1008.97 1008.69 1008.77 1008.95 1008.70 1008.02 1007.25 1006.64 1006.14 1005.85 1005.75 1005.85 1006.09 1006.41 1006.59 1006.44 1006.56 1007.19 1007.93 1008.86 1008.92 1008.94 1008.79 1009.63 1009.59 1010.07 1010.49 1010.73 1010.67 1010.88 1010.95 1010.97 1010.89 1010.44 1010.01 1009.59
1019.41 1019.11 1019.39 1019.78 1019.83 1019.76 1019.12 1018.01 1017.17 1016.05 1014.86 1013.31 1011.58 1011.10 1010.36 1009.93 1009.33 1008.51 1008.16 1008.12 1008.10 1007.88 1007.51 1007.29 1006.79 1006.13 1006.01 1005.85 1005.66 1005.92 1006.30 1006.78 1006.55 1006.56 1006.70 1006.79 1007.55 1007.78 1008.04 1008.17 1008.46 1008.65 1008.80 1009.01 1009.26 1009.67 1009.98 1010.06 1010.12 1009.99 1009.80 1009.47 1009.62 1009.43
1018.90 1018.88 1018.99 1019.35 1019.26 1019.18 1018.59 1017.58 1016.78 1015.80 1014.95 1012.91 1011.24 1010.45 1009.73 1009.14 1008.76 1008.02 1007.47 1007.14 1006.87 1006.74 1006.82 1006.44 1006.01 1005.68 1005.60 1006.03 1005.89 1006.40 1006.47 1006.88 1007.13 1007.25 1007.64 1007.69 1007.28 1007.41 1007.54 1007.56 1007.80 1008.04 1008.48 1008.91 1008.92 1009.17 1009.20 1008.78 1008.93 1009.02 1008.91 1008.82 1008.81 1008.67
1018.99 1019.02 1018.85 1018.91 1018.81 1018.35 1017.34 1016.56 1016.12 1015.16 1014.37 1012.57 1010.77 1009.74 1008.78 1008.21 1007.72 1007.57 1007.14 1006.37 1005.94 1005.85 1005.72 1005.56 1005.60 1005.68 1005.54 1005.61 1005.95 1006.27 1006.49 1006.73 1006.31 1006.48 1006.92 1006.52 1006.84 1007.04 1006.98 1007.11 1007.21 1007.19 1007.22 1007.39 1007.49 1007.85 1008.32 1008.50 1008.47 1008.49 1008.35 1008.35 1008.32 1008.55
1018.96 1018.68 1018.27 1018.04 1017.92 1017.09 1016.38 1015.72 1015.28 1014.33 1012.93 1011.77 1010.31 1008.93 1008.10 1007.75 1007.77 1007.63 1006.54 1005.78 1004.89 1004.82 1004.81 1004.97 1004.96 1005.08 1005.20 1005.58 1005.27 1005.14 1005.81 1006.21 1005.84 1005.92 1006.28 1006.11 1005.92 1006.41 1006.78 1006.55 1006.46 1006.49 1006.78 1006.99 1006.96 1007.31 1007.53 1007.81 1008.24 1008.00 1008.03 1007.96 1008.34 1008.33
1018.71 1018.24 1017.91 1017.21 1016.77 1016.42 1015.48 1014.73 1014.06 1013.33 1011.93 1010.73 1009.52 1008.15 1007.30 1007.28 1007.43 1007.25 1006.45 1005.86 1004.91 1004.29 1004.05 1004.53 1004.45 1004.36 1004.06 1004.01 1004.46 1004.62 1005.23 1005.41 1005.22 1005.11 1005.58 1005.55 1005.62 1005.95 1006.06 1006.08 1006.00 1006.08 1006.27 1006.41 1006.74 1007.00 1007.27 1007.47 1007.44 1007.30 1007.40 1007.53 1007.98 1007.93
1017.79 1017.05 1016.92 1016.12 1015.67 1015.43 1014.63 1013.74 1012.98 1011.94 1010.78 1009.48 1008.28 1007.31 1007.03 1006.95 1006.97 1006.46 1005.95 1006.01 1005.87 1004.79 1003.65 1003.61 1003.39 1003.32 1003.23 1003.17 1003.73 1004.08 1004.34 1004.89 1004.81 1004.68 1004.94 1004.96 1004.94 1005.03 1005.50 1006.05 1006.97 1006.62 1006.10 1005.75 1005.89 1006.34 1006.30 1006.65 1006.76 1006.93 1007.07 1007.52 1008.05 1007.84
1016.80 1015.83 1015.68 1015.49 1015.31 1014.86 1014.26 1013.34 1012.36 1011.05 1009.40 1008.24 1007.23 1007.26 1007.43 1007.18 1006.58 1006.21 1005.65 1005.31 1005.38 1004.66 1004.46 1004.06 1003.25 1003.01 1002.95 1002.96 1003.29 1003.39 1003.76 1004.44 1004.59 1004.58 1004.56 1004.51 1004.45 1004.63 1004.83 1005.05 1005.15 1005.47 1005.39 1005.31 1005.41 1005.56 1005.78 1006.02 1006.21 1006.60 1006.60 1006.66 1006.90 1007.13
1015.91 1015.25 1014.88 1014.77 1014.69 1014.40 1013.61 1012.51 1010.96 1009.17 1007.75 1006.87 1006.63 1006.69 1006.96 1006.75 1006.84 1006.38 1005.18 1005.21 1004.99 1004.68 1004.40 1004.04 1003.82 1002.96 1002.65 1002.88 1002.92 1003.28 1003.60 1004.07 1004.43 1004.49 1004.34 1004.30 1004.26 1004.25 1004.37 1004.52 1004.69 1005.34 1005.08 1004.95 1004.95 1005.15 1005.46 1005.80 1005.99 1006.10 1006.13 1006.09 1006.38 1006.48
1015.13 1014.55 1014.47 1013.99 1013.81 1013.44 1012.64 1011.66 1009.24 1007.30 1006.63 1006.33 1006.04 1005.61 1005.39 1005.79 1006.13 1005.65 1005.32 1004.99 1004.65 1003.98 1003.63 1003.15 1003.10 1003.06 1002.82 1002.69 1002.62 1002.90 1003.24 1003.46 1003.48 1003.81 1004.10 1003.67 1003.76 1004.46 1003.53 1003.60 1003.93 1004.31 1004.47 1004.78 1005.51 1005.76 1005.72 1006.24 1006.05 1005.89 1005.55 1005.52 1005.69 1005.93
1013.44 1013.47 1013.43 1012.97 1012.48 1011.67 1010.73 1009.62 1008.31 1007.46 1006.85 1006.52 1006.05 1005.66 1005.39 1005.14 1004.94 1004.76 1004.50 1004.34 1004.06 1003.62 1003.20 1002.97 1002.38 1002.34 1002.43 1002.20 1002.23 1002.49 1002.55 1002.75 1002.79 1002.76 1002.99 1002.87 1002.72 1004.13 1004.72 1005.20 1003.46 1003.34 1003.57 1003.84 1004.41 1005.18 1006.40 1006.40 1005.95 1005.97 1005.78 1005.54 1005.31 1005.48
1012.86 1012.52 1012.27 1011.87 1010.94 1009.78 1008.87 1008.30 1007.68 1007.11 1006.56 1006.13 1005.71 1005.35 1004.76 1004.43 1004.22 1004.12 1004.07 1004.02 1003.89 1003.62 1003.12 1002.62 1002.16 1002.12 1002.01 1001.81 1001.66 1001.98 1002.11 1002.22 1002.27 1002.47 1002.58 1003.18 1003.19 1003.08 1004.13 1004.79 1003.46 1002.84 1003.12 1003.34 1003.74 1004.14 1004.92 1005.50 1005.31 1005.30 1005.33 1005.30 1005.15 1005.29
1011.88 1011.60 1011.26 1010.37 1009.09 1007.97 1007.33 1006.78 1006.03 1005.39 1004.83 1004.36 1003.95 1003.68 1003.49 1003.43 1003.24 1003.01 1002.93 1003.00 1002.93 1002.72 1002.48 1002.36 1001.94 1001.80 1001.96 1001.63 1002.03 1001.60 1002.02 1001.76 1002.28 1002.30 1002.39 1002.39 1002.55 1002.49 1002.35 1002.18 1002.33 1002.32 1002.60 1003.04 1003.17 1003.35 1003.79 1004.38 1004.17 1004.14 1004.08 1004.34 1004.58 1004.70
1010.24 1009.80 1009.48 1008.93 1007.50 1006.21 1005.18 1005.11 1004.64 1003.92 1003.45 1002.84 1002.41 1002.10 1002.24 1002.35 1002.27 1001.90 1001.79 1002.18 1002.06 1001.81 1001.69 1001.78 1001.84 1001.72 1001.72 1001.77 1001.66 1001.59 1002.03 1001.64 1002.16 1002.73 1002.89 1003.20 1003.52 1003.73 1003.71 1003.26 1002.73 1002.39 1002.35 1002.67 1002.98 1002.96 1003.00 1003.23 1003.49 1003.51 1003.56 1003.66 1003.87 1004.07
Wind_Speed
12 12 13 13 14 14 13 14 14 15 15 16 16 16 16 16 17 10 6 3 6 7 11 9 8 8 7 6 8 10 7 9 7 8 10 11 12 13 15 9 11 13 11 12 13 17 22 21 14 11 10 7 12 12
12 13 13 13 13 14 14 14 14 14 15 16 16 15 15 15 14 12 6 2 3 7 8 12 13 12 11 10 7 5 8 6 6 6 2 5 8 8 11 11 12 11 10 9 10 12 6 10 12 11 12 14 15 14
13 13 13 13 13 14 14 14 15 15 16 16 16 16 15 13 11 7 8 7 7 7 10 9 4 5 7 12 11 8 3 7 2 4 7 5 4 9 8 8 6 9 10 7 13 10 16 11 16 18 18 16 16 8
13 13 13 13 13 13 13 14 15 15 16 16 16 16 15 12 12 9 8 6 5 6 7 6 4 5 2 6 8 10 10 6 7 6 7 6 7 2 7 12 9 13 4 7 9 11 14 3 16 19 18 16 15 21
12 12 13 14 13 14 14 13 14 16 16 17 17 16 15 14 13 10 9 6 4 6 7 9 9 5 7 7 7 8 9 8 6 6 6 6 4 6 5 11 9 5 9 7 9 10 6 14 15 16 12 16 19 7
12 12 13 13 13 14 15 15 15 17 18 18 17 17 15 12 10 8 5 5 5 4 6 5 4 5 3 3 7 8 8 6 7 7 5 4 0 2 7 7 5 4 3 8 10 12 14 17 13 11 14 17 12 10
13 14 15 15 15 15 15 15 15 17 18 18 18 17 15 10 7 5 7 5 6 4 6 5 4 8 3 4 6 6 7 6 6 7 8 6 6 4 6 10 7 8 8 8 9 8 13 12 12 13 12 14 1 8
12 13 14 15 16 16 16 16 17 18 19 18 17 15 12 7 9 7 4 4 6 6 5 5 4 4 6 8 6 2 6 7 5 7 8 5 8 8 7 5 8 10 10 10 7 10 15 16 11 11 11 10 8 1
13 14 14 15 15 16 16 17 19 20 20 17 12 4 5 5 4 6 1 3 5 6 6 4 8 4 2 5 3 3 4 5 3 4 9 4 6 4 4 4 5 8 8 10 12 14 15 12 12 12 12 13 10 5
13 12 13 14 15 16 15 18 20 21 22 13 5 7 5 5 1 4 3 5 5 6 6 6 3 3 3 2 4 3 3 6 4 4 3 5 7 5 3 8 4 6 8 10 12 11 13 14 13 13 12 10 11 1
12 13 13 14 15 15 16 16 18 23 16 3 3 3 5 7 5 5 4 5 6 6 7 7 7 2 2 5 2 1 3 2 5 4 3 4 3 5 5 4 5 8 9 10 11 10 12 12 12 12 11 6 6 2
12 12 13 15 16 16 15 14 14 11 7 8 7 6 4 5 5 5 5 4 5 3 4 6 5 4 3 1 5 2 4 3 3 0 4 2 4 5 2 4 6 8 9 10 10 9 9 11 9 10 10 3 4 10
13 13 15 16 15 16 17 12 10 11 16 6 6 5 4 4 2 7 7 5 4 5 4 5 6 4 4 5 3 4 5 3 1 5 1 3 6 4 5 6 7 8 10 9 8 10 9 10 7 6 5 2 6 8
12 13 14 15 14 14 10 9 10 10 6 5 4 4 6 7 6 5 7 4 5 1 5 5 3 3 3 6 3 5 1 4 4 4 3 5 3 5 6 6 8 9 10 10 6 7 7 8 6 6 6 5 6 9
13 13 16 18 8 5 9 11 11 6 4 3 2 6 8 6 2 3 4 5 4 3 4 3 3 3 5 4 4 1 5 5 1 3 3 4 3 5 6 7 8 8 9 9 7 6 5 5 5 5 5 3 5 8
12 15 5 2 5 8 10 12 4 2 2 3 6 9 6 6 6 7 7 8 4 5 2 3 2 4 4 4 5 7 4 1 4 3 2 0 5 4 5 7 7 7 8 6 6 6 5 4 4 4 2 5 6 8
8 5 3 3 8 13 13 5 4 6 4 5 8 10 10 6 8 7 6 2 2 5 6 2 4 5 2 4 4 4 2 2 1 3 3 7 4 5 5 6 6 7 7 7 6 2 1 3 4 2 3 4 5 3
5 4 2 5 7 8 3 5 4 3 7 8 9 7 5 6 7 6 6 4 4 8 5 4 4 6 5 4 5 3 4 2 5 4 4 5 2 3 4 5 6 7 6 6 2 4 3 3 7 6 3 4 3 7
7 5 4 2 3 4 4 3 4 5 7 8 7 7 7 7 4 8 6 7 6 3 2 3 5 5 5 4 6 3 2 0 2 1 1 5 1 3 3 4 2 5 5 5 3 3 4 5 5 3 2 5 7 7
13 13 11 6 3 3 4 3 2 4 5 3 7 9 6 7 6 8 9 8 8 7 5 5 8 7 6 4 3 1 4 3 4 5 4 8 6 5 3 6 7 6 3 7 6 2 2 2 4 4 3 5 6 4
5 4 9 6 4 4 3 3 4 4 4 6 4 4 4 5 8 9 9 8 9 11 9 8 9 9 6 3 1 3 2 3 7 5 6 2 4 2 5 6 7 4 3 6 7 6 6 4 6 8 8 7 1 4
1 4 1 4 3 4 4 5 4 4 4 7 9 8 6 7 7 8 6 8 11 8 9 11 10 8 4 7 6 5 5 3 4 3 3 4 6 5 4 3 3 8 9 6 4 5 6 6 8 8 8 6 5 5
3 2 2 3 4 4 5 3 4 3 4 4 4 3 5 5 3 4 5 7 9 10 10 10 12 12 11 3 4 6 6 7 6 6 5 5 4 2 4 4 3 2 3 6 6 5 5 2 3 4 6 6 3 4
1 3 3 4 6 4 3 4 3 4 5 6 5 5 4 3 4 3 7 9 6 4 5 8 8 9 9 10 9 7 7 8 8 6 6 6 5 6 2 3 4 3 4 4 3 3 4 5 4 6 5 6 6 7
3 4 3 5 4 4 5 4 4 4 4 6 10 6 2 3 4 5 7 2 4 6 6 7 7 8 10 10 9 8 10 9 9 7 7 6 3 6 6 7 5 3 5 5 5 6 4 5 6 6 6 6 7 10
5 6 5 4 3 5 4 3 5 6 7 4 6 3 2 2 3 5 1 2 4 9 4 5 7 8 8 6 6 7 10 8 7 7 7 7 6 5 6 6 5 7 10 5 6 7 7 7 7 8 7 7 3 7
4 5 5 3 2 2 3 4 6 7 4 5 4 2 2 3 4 1 4 4 4 2 3 5 6 4 3 6 3 4 7 7 8 6 6 6 6 5 4 4 2 4 8 7 5 5 5 6 6 8 9 9 10 11
4 3 5 5 4 3 3 4 4 6 6 4 3 6 3 2 2 3 1 0 2 3 4 4 6 7 3 9 9 5 6 7 9 9 5 6 6 6 6 6 5 5 5 7 5 6 6 6 7 9 9 8 6 7
4 3 3 5 5 5 5 5 7 4 2 3 4 5 1 5 7 6 3 4 6 6 4 6 8 7 5 4 6 8 8 8 10 11 10 9 1 5 9 9 7 8 6 6 8 6 6 8 6 5 9 9 7 7
7 7 4 4 5 6 7 8 9 9 7 7 8 8 7 7 7 6 6 6 6 6 3 6 4 5 7 8 8 7 7 8 8 9 11 10 5 5 11 12 11 5 5 4 6 8 2 6 7 7 7 8 7 7
2 2 3 4 5 8 11 10 11 11 11 12 11 11 11 9 8 7 8 8 8 7 8 7 7 6 7 5 7 11 9 9 10 10 7 9 11 5 8 11 15 3 6 6 6 8 10 9 9 11 12 12 12 8
5 7 4 5 7 8 10 11 11 11 11 11 11 11 11 10 11 8 7 8 10 10 7 6 7 5 6 5 5 5 4 4 4 8 11 9 8 9 8 6 6 5 4 8 8 8 12 10 10 12 12 13 11 10
8 7 8 8 10 8 5 3 6 6 6 7 6 4 7 6 5 2 6 9 9 8 5 6 6 4 4 6 6 4 3 4 7 5 6 9 7 6 7 8 10 10 6 5 5 11 12 14 11 11 9 8 9 11
Wind_Direction
320 322 320 320 327 325 325 324 324 325 327 330 335 338 340 346 349 334 314 22 314 298 301 307 293 287 278 236 280 41 275 203 263 254 263 270 271 278 286 296 302 280 286 277 277 284 289 16 343 355 0 321 320 340
322 321 320 318 323 325 323 321 320 322 324 325 328 331 334 338 344 337 279 121 313 265 308 322 282 285 279 295 318 281 325 302 0 290 301 309 293 296 281 283 284 280 301 332 312 317 6 354 345 6 2 343 359 357
325 320 320 321 317 321 325 322 320 320 321 322 322 323 325 328 330 324 305 326 276 257 259 228 199 153 209 233 258 272 199 9 212 322 316 301 308 300 286 286 331 278 29 287 300 300 3 345 25 26 344 344 325 340
329 324 319 315 316 314 315 319 320 318 317 316 316 317 317 319 317 305 283 329 283 288 279 117 154 196 180 206 222 244 274 278 271 271 282 283 294 7 292 321 308 302 309 284 303 302 334 146 359 345 322 334 339 343
323 324 319 316 316 316 315 313 315 315 313 312 310 309 310 312 310 281 263 259 249 301 330 324 321 191 204 194 221 231 242 248 270 269 244 263 303 341 294 277 269 326 14 314 336 341 331 320 316 312 323 316 303 20
314 320 315 313 312 313 313 313 313 313 310 307 304 301 299 299 302 266 217 174 215 261 280 269 66 198 202 230 230 214 228 232 248 274 282 297 236 245 273 286 341 215 142 346 324 329 321 297 311 340 335 311 300 341
316 322 321 320 316 313 313 311 311 310 308 305 301 298 294 278 248 285 10 18 341 275 252 265 225 153 234 208 191 188 206 229 246 258 242 272 267 220 272 277 344 26 354 349 301 304 314 316 320 323 304 300 176 229
313 317 319 321 319 315 314 314 314 311 308 305 303 301 297 209 255 244 146 234 279 268 269 270 250 180 184 230 192 194 224 199 215 252 273 264 261 224 250 350 359 355 336 302 333 322 298 293 311 324 313 297 287 228
311 315 318 319 319 319 317 318 316 312 307 312 312 270 204 226 243 61 50 198 231 296 302 252 279 103 157 265 321 198 271 264 212 241 255 225 257 244 65 321 8 345 321 319 308 298 294 317 321 313 317 304 279 136
309 311 315 318 319 319 321 324 319 311 309 308 246 215 192 54 129 170 160 191 206 197 226 260 311 259 287 130 197 295 163 260 264 174 51 231 229 59 55 29 11 314 312 316 316 327 327 309 308 315 308 306 309 128
308 310 310 317 318 321 321 326 327 319 286 249 308 353 20 124 236 217 243 223 184 214 194 227 226 273 130 278 1 220 313 6 253 109 247 190 207 95 87 330 337 314 312 318 311 313 318 322 319 308 298 296 277 187
297 303 311 313 316 315 315 320 327 320 3 339 304 273 259 229 223 236 232 204 221 254 148 220 169 238 92 296 260 168 247 182 264 269 244 202 119 90 5 335 321 321 321 316 311 317 325 321 327 310 304 261 217 134
301 298 310 310 308 311 309 302 308 300 283 193 226 234 207 211 288 223 206 205 214 163 155 197 178 226 144 234 223 228 226 271 48 229 306 109 138 69 348 320 319 318 308 307 324 333 313 319 318 304 297 146 159 153
299 295 297 294 297 306 320 319 321 314 272 259 255 262 234 197 231 207 257 360 72 192 166 205 166 217 168 208 210 237 332 265 257 216 83 86 34 354 336 316 305 306 309 302 322 300 321 321 333 345 316 252 188 138
299 295 289 288 279 284 308 310 309 283 279 264 258 250 229 253 302 277 300 299 208 249 171 177 240 251 190 231 225 222 216 233 316 106 90 107 46 2 318 326 314 308 307 315 315 306 312 317 322 300 323 317 255 183
304 294 216 123 310 307 303 289 230 270 235 253 240 247 265 263 244 222 218 230 171 205 213 257 235 230 222 229 195 221 243 263 82 83 21 296 66 331 315 320 321 317 305 317 294 281 279 279 314 341 348 13 339 182
295 245 115 315 312 295 278 265 219 222 233 233 238 228 265 287 286 294 316 313 25 238 219 199 229 204 241 241 230 234 90 116 75 255 8 70 8 316 322 315 319 317 305 318 287 242 301 264 261 347 72 347 358 234
240 243 272 322 330 302 196 223 244 235 246 238 264 275 263 232 237 249 287 274 247 235 222 240 311 218 228 225 239 159 101 339 7 1 6 32 327 308 303 328 326 323 323 310 287 172 108 64 48 35 122 239 194 160
274 294 231 169 354 295 270 198 269 264 248 284 290 278 273 269 254 279 272 264 234 281 303 237 251 234 248 272 282 300 91 121 142 94 27 124 276 299 304 304 303 27 18 32 32 51 64 43 29 345 322 190 190 172
261 258 233 231 234 254 267 249 232 265 276 279 273 260 260 259 261 243 238 224 221 209 213 226 235 252 277 212 248 293 311 354 311 286 227 148 152 196 198 325 45 104 107 113 108 102 82 300 235 213 237 234 177 187
200 203 202 191 195 232 283 270 245 254 287 266 282 288 264 275 262 237 232 230 207 218 227 232 253 264 261 331 343 31 347 301 307 338 358 319 122 273 159 176 202 122 162 140 169 160 228 240 255 172 175 177 240 229
211 167 108 180 215 204 249 229 261 320 271 279 288 245 252 243 237 255 242 223 221 223 226 244 250 264 186 211 225 193 280 189 244 115 169 180 190 185 198 179 180 185 167 207 198 185 215 247 161 184 186 161 209 141
163 189 189 177 215 219 256 197 231 217 248 255 271 263 236 242 243 176 232 229 233 228 240 241 240 256 274 104 192 164 207 213 210 229 143 222 123 163 181 163 180 209 171 156 190 143 92 119 170 278 126 198 149 133
116 219 218 207 201 256 233 216 217 247 226 230 241 239 233 205 178 233 252 249 220 194 220 214 223 221 214 233 255 217 183 213 235 182 187 229 178 148 204 260 206 195 155 216 156 135 167 140 143 198 207 173 185 223
204 225 217 237 219 229 226 209 210 232 248 245 253 258 237 190 193 211 236 304 283 230 180 171 207 216 214 201 206 216 165 209 227 196 179 236 207 167 190 199 226 186 184 165 182 190 206 200 214 208 203 197 204 210
227 202 205 214 198 224 203 238 216 220 243 240 246 248 220 225 226 245 345 84 323 305 253 208 204 197 215 197 162 184 164 213 220 223 185 205 221 206 159 207 154 244 278 196 186 220 197 199 206 199 204 164 103 282
240 226 196 218 281 302 267 262 268 278 245 236 252 75 352 252 240 138 186 166 201 298 346 295 286 269 190 189 122 243 145 186 214 227 214 217 224 236 227 238 194 251 219 228 212 219 217 194 200 177 217 202 180 209
250 273 227 170 207 215 278 278 239 234 231 237 241 173 222 333 17 276 49 98 307 278 281 240 247 271 228 175 186 160 160 176 178 216 227 223 222 227 217 226 224 119 285 315 311 246 228 219 198 196 208 213 225 232
231 229 214 230 202 211 220 234 263 257 292 281 272 299 8 144 184 244 277 300 299 290 244 228 197 205 229 247 188 181 179 199 193 185 224 241 132 343 268 212 181 199 195 224 181 274 331 318 296 250 221 219 208 235
224 182 230 225 217 220 223 229 264 295 308 300 298 290 282 264 256 262 269 269 274 293 298 267 271 209 210 203 195 219 216 206 216 205 210 240 202 114 67 296 272 173 190 203 175 156 126 245 226 248 246 263 256 226
306 252 236 240 258 252 253 259 263 264 261 262 257 264 271 277 278 270 261 262 263 262 265 244 230 224 253 246 210 183 215 218 215 237 243 196 250 176 156 233 252 211 199 196 231 173 165 204 211 214 224 230 246 249
196 210 219 241 259 258 251 244 246 254 257 255 252 249 249 246 254 263 239 231 221 230 236 256 267 213 253 266 270 267 167 203 248 229 226 233 245 273 285 293 296 260 235 210 218 224 171 207 211 208 210 205 219 223
216 235 236 259 254 241 210 211 257 256 272 251 248 241 217 227 234 265 157 200 218 224 252 205 240 279 235 275 294 328 291 289 89 88 83 48 31 360 318 300 295 296 254 235 218 242 220 205 228 240 235 241 220 228